TimeEST,TemperatureF,Dew PointF,Humidity,Sea Level PressureIn,VisibilityMPH,Wind Direction,Wind SpeedMPH,Gust SpeedMPH,PrecipitationIn,Events,Conditions,WindDirDegrees,DateUTC
12:53 AM,45.0,44.1,97,29.52,10.0,SSW,3.5,-,0.01,,Overcast,210,2012-12-18 05:53:00
1:30 AM,44.6,44.6,100,29.49,3.0,South,6.9,-,0.00,Rain,Light Rain,190,2012-12-18 06:30:00
1:37 AM,46.4,44.6,93,29.50,3.0,SSW,8.1,-,0.00,Rain,Light Rain,200,2012-12-18 06:37:00
1:53 AM,46.0,45.0,96,29.52,8.0,SSW,9.2,-,0.00,,Overcast,200,2012-12-18 06:53:00
2:19 AM,46.4,44.6,93,29.50,10.0,SW,9.2,-,N/A,,Overcast,220,2012-12-18 07:19:00
2:53 AM,46.9,44.1,90,29.53,10.0,SW,10.4,-,N/A,,Overcast,230,2012-12-18 07:53:00
3:53 AM,46.0,43.0,89,29.54,10.0,WSW,15.0,-,N/A,,Overcast,250,2012-12-18 08:53:00
4:29 AM,46.4,42.8,87,29.51,10.0,WSW,11.5,-,N/A,,Overcast,250,2012-12-18 09:29:00
4:42 AM,46.4,42.8,87,29.51,10.0,WSW,11.5,-,N/A,,Overcast,250,2012-12-18 09:42:00
4:53 AM,46.0,43.0,89,29.54,10.0,WSW,10.4,-,N/A,,Overcast,240,2012-12-18 09:53:00
5:20 AM,46.4,42.8,87,29.52,8.0,WSW,11.5,-,N/A,,Overcast,250,2012-12-18 10:20:00
5:53 AM,45.0,43.0,93,29.55,5.0,WSW,11.5,-,N/A,,Overcast,240,2012-12-18 10:53:00
6:53 AM,44.1,41.0,89,29.58,10.0,West,12.7,19.6,0.03,,Overcast,280,2012-12-18 11:53:00
7:00 AM,42.8,41.0,93,29.56,10.0,West,15.0,23.0,N/A,,Overcast,280,2012-12-18 12:00:00
7:11 AM,42.8,41.0,93,29.56,10.0,WNW,12.7,20.7,N/A,,Overcast,290,2012-12-18 12:11:00
7:53 AM,41.0,39.0,93,29.62,10.0,WNW,11.5,23.0,0.01,Rain,Light Rain,290,2012-12-18 12:53:00
8:53 AM,39.0,36.0,89,29.66,10.0,WNW,10.4,17.3,0.02,Rain,Light Rain,300,2012-12-18 13:53:00
9:01 AM,37.4,35.6,93,29.63,10.0,WNW,8.1,-,0.01,Rain,Light Rain,300,2012-12-18 14:01:00
9:31 AM,37.4,35.6,93,29.65,10.0,WNW,9.2,-,0.01,Rain,Light Rain,300,2012-12-18 14:31:00
9:53 AM,37.9,36.0,93,29.70,10.0,WNW,6.9,16.1,0.01,,Overcast,290,2012-12-18 14:53:00
10:53 AM,37.9,35.1,89,29.73,10.0,West,13.8,20.7,N/A,,Overcast,280,2012-12-18 15:53:00
11:53 AM,37.0,34.0,89,29.74,7.0,WNW,15.0,24.2,0.01,Rain,Light Rain,290,2012-12-18 16:53:00
12:53 PM,37.0,34.0,89,29.75,10.0,WNW,9.2,17.3,0.01,,Overcast,290,2012-12-18 17:53:00
1:53 PM,37.9,34.0,86,29.75,10.0,West,8.1,17.3,0.00,,Overcast,280,2012-12-18 18:53:00
2:01 PM,37.4,33.8,87,29.73,10.0,West,13.8,17.3,N/A,,Overcast,270,2012-12-18 19:01:00
2:22 PM,37.4,33.8,87,29.73,10.0,West,13.8,18.4,N/A,,Overcast,270,2012-12-18 19:22:00
2:51 PM,39.2,32.0,75,29.74,10.0,WNW,10.4,-,N/A,,Mostly Cloudy,290,2012-12-18 19:51:00
2:53 PM,39.0,30.9,73,29.77,10.0,WNW,10.4,-,N/A,,Mostly Cloudy,290,2012-12-18 19:53:00
3:53 PM,39.9,30.0,68,29.78,10.0,West,8.1,18.4,N/A,,Clear,280,2012-12-18 20:53:00
4:53 PM,37.9,30.0,73,29.79,10.0,WSW,8.1,-,N/A,,Partly Cloudy,250,2012-12-18 21:53:00
5:53 PM,37.9,30.0,73,29.81,10.0,WSW,12.7,-,N/A,,Clear,250,2012-12-18 22:53:00
6:53 PM,37.0,30.0,76,29.83,10.0,SW,8.1,-,N/A,,Clear,230,2012-12-18 23:53:00
7:53 PM,36.0,30.0,79,29.83,10.0,SSW,8.1,-,N/A,,Partly Cloudy,200,2012-12-19 00:53:00
8:53 PM,35.1,30.0,82,29.83,10.0,SSW,6.9,-,N/A,,Overcast,200,2012-12-19 01:53:00
9:53 PM,36.0,30.0,79,29.85,10.0,SSW,9.2,-,N/A,,Overcast,210,2012-12-19 02:53:00
10:53 PM,36.0,30.9,82,29.86,10.0,SW,6.9,-,N/A,,Overcast,220,2012-12-19 03:53:00
11:53 PM,35.1,32.0,89,29.83,10.0,SSE,5.8,-,N/A,,Overcast,160,2012-12-19 04:53:00